EW7961 Weather Reports


Display with metric or nautical units.
time (UTC)temp
F
wind
direction
speed
MPH
gust
MPH
rain 1hr
in
rain 24hr
in
rain mn
in
humidity
%
barometer
mb
20260902074517 84 284 1.0 2.0 0.00 0.00 0.00 69 1016.4
20260902073520 84 282 1.0 2.0 0.00 0.00 0.00 68 1016.3
20260902072520 84 283 1.0 2.0 0.00 0.00 0.00 68 1016.4
20260902071523 84 286 1.0 3.0 0.00 0.00 0.00 68 1016.4
20260902070520 84 289 1.0 2.0 0.00 0.00 0.00 67 1016.4
20260902065520 84 283 1.0 2.0 0.00 0.00 0.00 67 1016.4
20260902064518 84 284 1.0 3.0 0.00 0.00 0.00 67 1016.4
20260902063603 84 283 1.0 2.0 0.00 0.00 0.00 67 1016.5
20260902062521 84 288 2.0 3.0 0.00 0.00 0.00 68 1016.4
20260902061558 84 286 1.0 3.0 0.00 0.00 0.00 68 1016.5
20260902060518 84 275 1.0 3.0 0.00 0.00 0.00 68 1016.4
20260902055558 84 283 1.0 2.0 0.00 0.00 0.00 68 1016.3
20260902054518 84 291 1.0 2.0 0.00 0.00 0.00 67 1016.4
20260902053518 84 287 1.0 3.0 0.00 0.00 0.00 67 1016.4
20260902052639 85 291 1.0 2.0 0.00 0.00 0.00 66 1016.4
20260902051519 85 297 1.0 2.0 0.00 0.00 0.00 66 1016.4
20260902050519 85 294 1.0 2.0 0.00 0.00 0.00 65 1016.3
20260902045521 85 299 1.0 2.0 0.00 0.00 0.00 65 1016.2
20260902044519 86 288 1.0 2.0 0.00 0.00 0.00 64 1016.2
20260902043602 86 291 1.0 2.0 0.00 0.00 0.00 63 1016.2
20260902042519 86 298 1.0 2.0 0.00 0.00 0.00 63 1016.2
20260902041519 86 296 1.0 2.0 0.00 0.00 0.00 62 1016.1
20260902040519 86 287 1.0 2.0 0.00 0.00 0.00 62 1016.1
20260902034557 87 288 1.0 3.0 0.00 0.00 0.00 61 1016.2
20260902033520 87 299 0.0 2.0 0.00 0.00 0.00 61 1016.2
20260902032600 87 291 1.0 4.0 0.00 0.00 0.00 60 1016.2
20260902031520 87 298 1.0 3.0 0.00 0.00 0.00 60 1016.2
20260902025517 88 296 1.0 3.0 0.00 0.00 0.00 59 1016.1
20260902024521 88 295 1.0 2.0 0.00 0.00 0.00 58 1016.0
20260902023641 88 298 1.0 3.0 0.00 0.00 0.00 57 1015.9
20260902022520 89 288 1.0 4.0 0.00 0.00 0.00 56 1015.8
20260902021518 89 285 1.0 3.0 0.00 0.00 0.00 56 1015.6
20260902020518 90 295 1.0 4.0 0.00 0.00 0.00 55 1015.5
20260902015518 90 295 1.0 4.0 0.00 0.00 0.00 54 1015.4
20260902014518 90 294 1.0 3.0 0.00 0.00 0.00 53 1015.3
20260902013521 91 291 1.0 5.0 0.00 0.00 0.00 53 1015.2
20260902012519 91 299 1.0 3.0 0.00 0.00 0.00 52 1015.2
20260902011519 91 275 0.0 2.0 0.00 0.00 0.00 52 1015.1
20260902010518 92 288 0.0 3.0 0.00 0.00 0.00 51 1015.0
20260902005602 92 292 0.0 2.0 0.00 0.00 0.00 50 1014.9
20260902004519 93 285 0.0 2.0 0.00 0.00 0.00 49 1014.9
20260902003519 93 239 0.0 2.0 0.00 0.00 0.00 48 1014.9
20260902002519 94 294 1.0 2.0 0.00 0.00 0.00 47 1014.9
20260902001519 94 288 0.0 2.0 0.00 0.00 0.00 47 1014.9
20260902000519 95 298 1.0 2.0 0.00 0.00 0.00 46 1014.9
20260901235522 95 291 1.0 3.0 0.00 0.00 0.00 46 1014.9
20260901234557 0 299 1.0 2.0 0.00 0.00 0.00
20260901233520 96 304 1.0 3.0 0.00 0.00 0.00 45 1015.0
20260901232520 97 287 1.0 4.0 0.00 0.00 0.00 43 1015.0
20260901231523 98 293 1.0 4.0 0.00 0.00 0.00 42 1015.0
20260901230517 98 295 1.0 4.0 0.00 0.00 0.00 41 1015.0
20260901225517 99 298 1.0 3.0 0.00 0.00 0.00 41 1014.9
20260901224517 99 282 1.0 2.0 0.00 0.00 0.00 40 1014.9
20260901223520 100 271 1.0 3.0 0.00 0.00 0.00 39 1014.9
20260901222522 102 290 1.0 3.0 0.00 0.00 0.00 38 1014.9
20260901221517 104 295 2.0 6.0 0.00 0.00 0.00 36 1014.8
20260901220517 105 291 1.0 2.0 0.00 0.00 0.00 35 1014.8
20260901215518 104 290 1.0 2.0 0.00 0.00 0.00 36 1014.8
20260901214521 103 302 1.0 2.0 0.00 0.00 0.00 36 1014.7
20260901212558 103 299 1.0 4.0 0.00 0.00 0.00 35 1014.8
20260901211518 102 289 2.0 3.0 0.00 0.00 0.00 37 1014.9
20260901210518 101 296 1.0 4.0 0.00 0.00 0.00 37 1015.0
20260901205518 101 294 1.0 2.0 0.00 0.00 0.00 37 1015.2
20260901204539 101 278 0.0 2.0 0.00 0.00 0.00 37 1015.3
20260901203525 101 255 1.0 2.0 0.00 0.00 0.00 36 1015.4
20260901202525 101 301 1.0 4.0 0.00 0.00 0.00 36 1015.5
20260901201524 101 299 1.0 3.0 0.00 0.00 0.00 36 1015.5
20260901200524 100 309 1.0 2.0 0.00 0.00 0.00 36 1015.6
20260901195605 100 302 1.0 3.0 0.00 0.00 0.00 37 1015.7
20260901194620 100 292 1.0 3.0 0.00 0.00 0.00 37 1015.8
20260901193605 100 295 2.0 3.0 0.00 0.00 0.00 36 1015.9
20260901192541 99 280 2.0 4.0 0.00 0.00 0.00 37 1016.0
20260901191526 99 293 2.0 3.0 0.00 0.00 0.00 37 1016.1
20260901190526 99 298 2.0 4.0 0.00 0.00 0.00 38 1016.2
20260901185526 99 289 2.0 4.0 0.00 0.00 0.00 40 1016.4
20260901184541 98 292 2.0 2.0 0.00 0.00 0.00 41 1016.5
20260901183526 97 294 2.0 4.0 0.00 0.00 0.00 42 1016.6
20260901182526 97 300 1.0 2.0 0.00 0.00 0.00 42 1016.7
20260901181526 96 301 2.0 3.0 0.00 0.00 0.00 42 1016.8
20260901180541 96 278 3.0 4.0 0.00 0.00 0.00 44 1016.9
20260901175541 95 298 2.0 5.0 0.00 0.00 0.00 46 1017.1
20260901174527 95 288 2.0 5.0 0.00 0.00 0.00 46 1017.2
20260901173542 94 283 2.0 3.0 0.00 0.00 0.00 48 1017.3
20260901172527 94 298 2.0 4.0 0.00 0.00 0.00 48 1017.4
20260901171527 94 284 2.0 3.0 0.00 0.00 0.00 49 1017.5
20260901170527 93 293 2.0 4.0 0.00 0.00 0.00 50 1017.6
20260901165607 93 278 2.0 3.0 0.00 0.00 0.00 51 1017.6
20260901164527 92 276 2.0 3.0 0.00 0.00 0.00 51 1017.8
20260901163527 92 272 2.0 3.0 0.00 0.00 0.00 51 1017.8
20260901162527 92 294 2.0 3.0 0.00 0.00 0.00 51 1017.9
20260901161557 92 281 3.0 4.0 0.00 0.00 0.00 51 1017.8
20260901160528 91 269 1.0 2.0 0.00 0.00 0.00 53 1017.9
20260901155558 91 281 1.0 3.0 0.00 0.00 0.00 54 1017.9
20260901154543 90 288 2.0 3.0 0.00 0.00 0.00 55 1017.9
20260901153558 89 294 2.0 3.0 0.00 0.00 0.00 56 1018.0
20260901152543 88 282 2.0 2.0 0.00 0.00 0.00 57 1018.1
20260901151543 88 279 2.0 3.0 0.00 0.00 0.00 59 1018.1
20260901150543 87 282 2.0 2.0 0.00 0.00 0.00 61 1018.1
20260901145529 86 278 2.0 2.0 0.00 0.00 0.00 63 1018.0
20260901144609 85 277 2.0 2.0 0.00 0.00 0.00 65 1018.1
20260901143529 84 279 2.0 2.0 0.00 0.00 0.00 68 1018.2
20260901142558 83 274 2.0 3.0 0.00 0.00 0.00 69 1018.3
20260901141612 83 290 1.0 2.0 0.00 0.00 0.00 69 1018.3
20260901140529 82 280 2.0 3.0 0.00 0.00 0.00 70 1018.3
20260901135544 82 279 2.0 2.0 0.00 0.00 0.00 70 1018.4
20260901134629 81 278 2.0 2.0 0.00 0.00 0.00 71 1018.4
20260901133530 81 279 2.0 2.0 0.00 0.00 0.00 72 1018.4
20260901132650 81 275 2.0 3.0 0.00 0.00 0.00 72 1018.4
20260901131713 80 276 2.0 2.0 0.00 0.00 0.00 72 1018.4
20260901130615 80 271 2.0 2.0 0.00 0.00 0.00 72 1018.4
20260901125600 80 272 2.0 2.0 0.00 0.00 0.00 72 1018.3
20260901124530 80 272 2.0 2.0 0.00 0.00 0.00 74 1018.2
20260901123600 79 257 1.0 2.0 0.00 0.00 0.00 76 1018.1
20260901115114 77 278 2.0 2.0 0.00 0.00 0.00 78 1017.8
20260901114031 0 282 2.0 2.0 0.00 0.00 0.00
20260901113116 0 289 1.0 2.0 0.00 0.00 0.00
20260901112031 78 289 1.0 2.0 0.00 0.00 0.00 78 1017.7
20260901111116 78 298 1.0 2.0 0.00 0.00 0.00 78 1017.6
20260901105614 0 283 2.0 2.0 0.00 0.00 0.00
20260901104632 0 279 1.0 2.0 0.00 0.00 0.00
20260901103802 0 275 0.0 1.0 0.00 0.00 0.00
20260901101617 0 271 0.0 0.0 0.00 0.00 0.00
20260901095732 0 277 0.0 0.0 0.00 0.00 0.00
20260901094713 79 271 1.0 2.0 0.00 0.00 0.00 74 1017.1
20260901093628 79 278 2.0 2.0 0.00 0.00 0.00 74 1017.1
20260901092518 79 264 1.0 2.0 0.00 0.00 0.00 75 1017.0
20260901091533 79 294 1.0 2.0 0.00 0.00 0.00 75 1017.0
20260901090548 80 322 1.0 1.0 0.00 0.00 0.00 74 1016.9
20260901085628 80 281 1.0 1.0 0.00 0.00 0.00 74 1016.8
20260901084548 80 273 1.0 2.0 0.00 0.00 0.00 74 1016.7
20260901083548 0 281 1.0 1.0 0.00 0.00 0.00
20260901082629 80 275 1.0 1.0 0.00 0.00 0.00 73 1016.6
20260901081519 80 295 0.0 1.0 0.00 0.00 0.00 73 1016.5
20260901080618 80 288 1.0 2.0 0.00 0.00 0.00 73 1016.6
20260901075648 0 304 0.0 0.0 0.00 0.00 0.00